Back to catalog

STARLINK-34067

AliveCommunicationsVLEO
NORAD 64115·PAYLOAD·🇺🇸 United States

Launched May 23, 2025 from Vandenberg Space Force Base

Loading…

Next Passes (next 24 hours)

TLE

FreshSource: CelesTrak SupGP

Epoch: Sep 14, 2026, 21:19 UTC

1 64115C 25110V   26257.88868056  .00053755  00000+0  11817-2 0  2578
2 64115  53.1567 221.9487 0006465  57.6507 332.8938 15.43370112    14

Track STARLINK-34067 in real time with AllMySat

Download on the App Store